,,,PA_Meas_PMT16A,,PR_Meas_QMR101_102,,RH_Meas_QMH101,,SR_Meas_QMS101,,TA_Meas_QMH101,,GenWind,,GenWind,
date,time,status,PA,status,PR,status,RH,status,SR,status,TA,status,DirAvg,status,SpdAvg,
2012-04-25, 00:00:05,VALID,1004.54,VALID,0,VALID,87.015,VALID,0,VALID,25.0274,VALID,354,VALID,1.80195,
2012-04-25, 00:01:05,VALID,1004.54,VALID,0,VALID,87.1828,VALID,0,VALID,25.0274,VALID,351,VALID,1.08711,
2012-04-25, 00:02:05,VALID,1004.48,VALID,0,VALID,86.8929,VALID,0,VALID,25.0274,VALID,347,VALID,2.02813,
2012-04-25, 00:03:05,VALID,1004.46,VALID,0,VALID,86.8395,VALID,0,VALID,25.0274,VALID,350,VALID,1.60273,
2012-04-25, 00:04:05,VALID,1004.42,VALID,0,VALID,86.9769,VALID,0,VALID,24.9866,VALID,352,VALID,1.07383,
2012-04-25, 00:05:05,VALID,1004.38,VALID,0,VALID,86.9769,VALID,0,VALID,24.9866,VALID,336,VALID,1.41562,
2012-04-25, 00:06:05,VALID,1004.35,VALID,0,VALID,86.9845,VALID,0,VALID,25.0079,VALID,357,VALID,1.44375,
2012-04-25, 00:07:05,VALID,1004.35,VALID,0,VALID,86.7022,VALID,0,VALID,24.9866,VALID,348,VALID,1.36836,
2012-04-25, 00:08:05,VALID,1004.35,VALID,0,VALID,86.8395,VALID,0,VALID,25.0079,VALID,345,VALID,0.693359,
2012-04-25, 00:09:05,VALID,1004.35,VALID,0,VALID,86.748,VALID,0,VALID,24.9866,VALID,359,VALID,1.24258,
2012-04-25, 00:10:05,VALID,1004.37,VALID,0,VALID,86.8701,VALID,0,VALID,25.0079,VALID,2,VALID,0.793359,
2012-04-25, 00:11:05,VALID,1004.39,VALID,0,VALID,86.8243,VALID,0,VALID,24.9866,VALID,347,VALID,1.44883,
2012-04-25, 00:12:05,VALID,1004.35,VALID,0,VALID,86.9006,VALID,0,VALID,25.0079,VALID,316,VALID,0.519531,
2012-04-25, 00:13:05,VALID,1004.32,VALID,0,VALID,86.7404,VALID,0,VALID,25.0079,VALID,353,VALID,1.28281,
2012-04-25, 00:14:05,VALID,1004.35,VALID,0,VALID,86.9464,VALID,0,VALID,24.9885,VALID,354,VALID,0.895703,
2012-04-25, 00:15:05,VALID,1004.33,VALID,0,VALID,86.9464,VALID,0,VALID,24.9671,VALID,5,VALID,1.33125,
2012-04-25, 00:16:05,VALID,1004.33,VALID,0,VALID,86.9158,VALID,0,VALID,24.969,VALID,345,VALID,1.24844,
2012-04-25, 00:17:05,VALID,1004.3,VALID,0,VALID,87.0303,VALID,0,VALID,24.969,VALID,330,VALID,1.10117,
2012-04-25, 00:18:05,VALID,1004.32,VALID,0,VALID,87.0303,VALID,0,VALID,24.9282,VALID,267,VALID,0.886719,
2012-04-25, 00:19:05,VALID,1004.29,VALID,0,VALID,87.0684,VALID,0,VALID,24.969,VALID,328,VALID,0.449609,
2012-04-25, 00:20:05,VALID,1004.32,VALID,0,VALID,87.0226,VALID,0,VALID,24.9495,VALID,308,VALID,1.01602,
2012-04-25, 00:21:05,VALID,1004.36,VALID,0,VALID,87.0455,VALID,0,VALID,24.969,VALID,348,VALID,1.28594,
2012-04-25, 00:22:05,VALID,1004.37,VALID,0,VALID,87.0379,VALID,0,VALID,24.9495,VALID,315,VALID,0.599219,
2012-04-25, 00:23:05,VALID,1004.4,VALID,0,VALID,87.0532,VALID,0,VALID,24.9495,VALID,292,VALID,0.403125,
2012-04-25, 00:24:05,VALID,1004.41,VALID,0,VALID,87.0913,VALID,0,VALID,24.9495,VALID,297,VALID,0.344141,
2012-04-25, 00:25:05,VALID,1004.45,VALID,0,VALID,87.0303,VALID,0,VALID,24.9495,VALID,336,VALID,0.980859,
2012-04-25, 00:26:05,VALID,1004.47,VALID,0,VALID,87.1294,VALID,0,VALID,24.9495,VALID,254,VALID,1.32109,
2012-04-25, 00:27:05,VALID,1004.53,VALID,0,VALID,86.954,VALID,0,VALID,24.93,VALID,316,VALID,1.18789,
2012-04-25, 00:28:05,VALID,1004.51,VALID,0,VALID,87.0532,VALID,0,VALID,24.9282,VALID,248,VALID,0.678906,
2012-04-25, 00:29:05,VALID,1004.53,VALID,0,VALID,87.1828,VALID,0,VALID,24.9495,VALID,209,VALID,0.707031,
2012-04-25, 00:30:05,VALID,1004.59,VALID,0,VALID,87.3812,VALID,0,VALID,24.9904,VALID,251,VALID,0.584766,
2012-04-25, 00:31:05,VALID,1004.61,VALID,0,VALID,87.0837,VALID,0,VALID,24.969,VALID,295,VALID,0.289844,
2012-04-25, 00:32:05,VALID,1004.62,VALID,0,VALID,86.954,VALID,0,VALID,24.969,VALID,294,VALID,0.919141,
2012-04-25, 00:33:05,VALID,1004.63,VALID,0,VALID,86.8472,VALID,0,VALID,24.969,VALID,269,VALID,0.976953,
2012-04-25, 00:34:05,VALID,1004.65,VALID,0,VALID,87.0455,VALID,0,VALID,24.969,VALID,276,VALID,0.189844,
2012-04-25, 00:35:05,VALID,1004.69,VALID,0,VALID,87.1218,VALID,0,VALID,24.9885,VALID,286,VALID,0.589453,
2012-04-25, 00:36:05,VALID,1004.64,VALID,0,VALID,86.5268,VALID,0,VALID,25.0274,VALID,313,VALID,1.54922,
2012-04-25, 00:37:05,VALID,1004.65,VALID,0,VALID,86.6183,VALID,0,VALID,25.0469,VALID,281,VALID,0.386328,
2012-04-25, 00:38:05,VALID,1004.63,VALID,0,VALID,86.4581,VALID,0,VALID,25.0469,VALID,317,VALID,0.503125,
2012-04-25, 00:39:05,VALID,1004.59,VALID,0,VALID,86.6259,VALID,0,VALID,25.0663,VALID,344,VALID,0.426562,
2012-04-25, 00:40:05,VALID,1004.56,VALID,0,VALID,86.5573,VALID,0,VALID,25.0644,VALID,270,VALID,0.324609,
2012-04-25, 00:41:05,VALID,1004.56,VALID,0,VALID,86.5649,VALID,0,VALID,25.0858,VALID,332,VALID,0.70625,
2012-04-25, 00:42:05,VALID,1004.49,VALID,0,VALID,86.3055,VALID,0,VALID,25.0858,VALID,350,VALID,1.34648,
2012-04-25, 00:43:05,VALID,1004.5,VALID,0,VALID,86.3971,VALID,0,VALID,25.0839,VALID,289,VALID,0.0636719,
2012-04-25, 00:44:05,VALID,1004.5,VALID,0,VALID,86.481,VALID,0.0815089,VALID,25.0625,VALID,343,VALID,0.738281,
2012-04-25, 00:45:05,VALID,1004.48,VALID,0,VALID,86.687,VALID,0,VALID,25.0839,VALID,325,VALID,0.752344,
2012-04-25, 00:46:05,VALID,1004.49,VALID,0,VALID,86.6259,VALID,0.0815089,VALID,25.045,VALID,301,VALID,0.573047,
2012-04-25, 00:47:05,VALID,1004.42,VALID,0,VALID,86.4734,VALID,0,VALID,25.0469,VALID,340,VALID,1.04727,
2012-04-25, 00:48:05,VALID,1004.45,VALID,0,VALID,86.6336,VALID,0,VALID,25.0469,VALID,329,VALID,0.667969,
2012-04-25, 00:49:05,VALID,1004.44,VALID,0,VALID,86.5878,VALID,0,VALID,25.0469,VALID,353,VALID,1.20234,
2012-04-25, 00:50:05,VALID,1004.42,VALID,0,VALID,86.5954,VALID,0,VALID,25.0469,VALID,334,VALID,0.587891,
2012-04-25, 00:51:05,VALID,1004.44,VALID,0,VALID,86.5344,VALID,0,VALID,25.0469,VALID,341,VALID,0.396875,
2012-04-25, 00:52:05,VALID,1004.39,VALID,0,VALID,86.4657,VALID,0,VALID,25.006,VALID,2,VALID,0.772656,
2012-04-25, 00:53:05,VALID,1004.4,VALID,0,VALID,86.4352,VALID,0,VALID,25.0274,VALID,2,VALID,0.566797,
2012-04-25, 00:54:05,VALID,1004.41,VALID,0,VALID,86.5573,VALID,0,VALID,25.0274,VALID,354,VALID,0.921875,
2012-04-25, 00:55:05,VALID,1004.41,VALID,0,VALID,86.5725,VALID,0,VALID,25.006,VALID,360,VALID,0.784766,
2012-04-25, 00:56:05,VALID,1004.37,VALID,0,VALID,86.5344,VALID,0,VALID,25.0274,VALID,356,VALID,0.28125,
2012-04-25, 00:57:05,VALID,1004.32,VALID,0,VALID,86.7022,VALID,0,VALID,24.9866,VALID,358,VALID,0.775391,
2012-04-25, 00:58:05,VALID,1004.35,VALID,0,VALID,86.4352,VALID,0,VALID,24.9885,VALID,340,VALID,1.30352,
2012-04-25, 00:59:05,VALID,1004.34,VALID,0,VALID,86.6717,VALID,0,VALID,24.9866,VALID,355,VALID,0.504297,
2012-04-25, 01:00:05,VALID,1004.35,VALID,0,VALID,86.5573,VALID,0,VALID,25.0079,VALID,332,VALID,0.470313,
2012-04-25, 01:01:05,VALID,1004.38,VALID,0,VALID,86.4657,VALID,0.0815089,VALID,25.0079,VALID,323,VALID,0.766406,
2012-04-25, 01:02:05,VALID,1004.4,VALID,0,VALID,86.3589,VALID,0,VALID,25.0079,VALID,336,VALID,0.691406,
2012-04-25, 01:03:05,VALID,1004.41,VALID,0,VALID,86.3208,VALID,0,VALID,25.0274,VALID,335,VALID,0.812891,
2012-04-25, 01:04:05,VALID,1004.4,VALID,0,VALID,86.2216,VALID,0,VALID,25.006,VALID,1,VALID,1.16133,
2012-04-25, 01:05:04,VALID,1004.43,VALID,0,VALID,86.3208,VALID,0,VALID,25.0079,VALID,340,VALID,0.359766,
2012-04-25, 01:06:04,VALID,1004.46,VALID,0,VALID,86.4428,VALID,0,VALID,25.006,VALID,340,VALID,0.301953,
2012-04-25, 01:07:04,VALID,1004.52,VALID,0,VALID,86.3284,VALID,0,VALID,25.0293,VALID,341,VALID,0.377344,
2012-04-25, 01:08:04,VALID,1004.53,VALID,0,VALID,86.7099,VALID,0,VALID,25.0274,VALID,348,VALID,0.878516,
2012-04-25, 01:09:04,VALID,1004.52,VALID,0,VALID,86.4886,VALID,0,VALID,25.0079,VALID,345,VALID,0.998047,
2012-04-25, 01:10:04,VALID,1004.52,VALID,0,VALID,86.214,VALID,0,VALID,25.0079,VALID,333,VALID,1.40273,
2012-04-25, 01:11:04,VALID,1004.51,VALID,0,VALID,86.336,VALID,0,VALID,25.0274,VALID,359,VALID,0.6,
2012-04-25, 01:12:04,VALID,1004.54,VALID,0,VALID,86.5496,VALID,0,VALID,25.0469,VALID,360,VALID,0.880078,
2012-04-25, 01:13:04,VALID,1004.49,VALID,0,VALID,86.2369,VALID,0,VALID,25.006,VALID,347,VALID,1.25273,
2012-04-25, 01:14:04,VALID,1004.45,VALID,0,VALID,86.6641,VALID,0,VALID,25.006,VALID,358,VALID,1.24258,
2012-04-25, 01:15:04,VALID,1004.45,VALID,0,VALID,86.8243,VALID,0,VALID,24.9866,VALID,358,VALID,0.858203,
2012-04-25, 01:16:04,VALID,1004.39,VALID,0,VALID,86.7938,VALID,0,VALID,24.9885,VALID,349,VALID,1.32891,
2012-04-25, 01:17:04,VALID,1004.39,VALID,0,VALID,86.9235,VALID,0,VALID,24.969,VALID,349,VALID,1.12383,
2012-04-25, 01:18:04,VALID,1004.37,VALID,0,VALID,86.8319,VALID,0,VALID,24.9495,VALID,356,VALID,1.46094,
2012-04-25, 01:19:04,VALID,1004.34,VALID,0,VALID,87.0303,VALID,0,VALID,24.9087,VALID,6,VALID,1.35039,
2012-04-25, 01:20:04,VALID,1004.28,VALID,0,VALID,87.1142,VALID,0,VALID,24.93,VALID,7,VALID,0.912109,
2012-04-25, 01:21:04,VALID,1004.28,VALID,0,VALID,87.0226,VALID,0,VALID,24.8892,VALID,350,VALID,1.27852,
2012-04-25, 01:22:04,VALID,1004.29,VALID,0,VALID,87.1752,VALID,0,VALID,24.8892,VALID,348,VALID,0.975,
2012-04-25, 01:23:04,VALID,1004.25,VALID,0,VALID,87.3278,VALID,0,VALID,24.8697,VALID,357,VALID,0.948828,
2012-04-25, 01:24:04,VALID,1004.24,VALID,0,VALID,87.3583,VALID,0,VALID,24.8697,VALID,2,VALID,0.575781,
2012-04-25, 01:25:04,VALID,1004.24,VALID,0,VALID,87.1905,VALID,0,VALID,24.8911,VALID,342,VALID,1.01641,
2012-04-25, 01:26:04,VALID,1004.19,VALID,0,VALID,87.1218,VALID,0,VALID,24.9319,VALID,353,VALID,0.918359,
2012-04-25, 01:27:04,VALID,1004.17,VALID,0,VALID,87.0532,VALID,0,VALID,24.9106,VALID,326,VALID,0.580078,
2012-04-25, 01:28:04,VALID,1004.13,VALID,0,VALID,87.076,VALID,0,VALID,24.9087,VALID,359,VALID,0.466016,
2012-04-25, 01:29:04,VALID,1004.1,VALID,0,VALID,86.9616,VALID,0,VALID,24.9495,VALID,359,VALID,0.344141,
2012-04-25, 01:30:04,VALID,1004.08,VALID,0,VALID,87.0074,VALID,0,VALID,24.9495,VALID,349,VALID,0.899219,
2012-04-25, 01:31:04,VALID,1004.06,VALID,0,VALID,86.8014,VALID,0,VALID,24.93,VALID,344,VALID,1.41367,
2012-04-25, 01:32:04,VALID,1004.06,VALID,0,VALID,87.076,VALID,0,VALID,24.8892,VALID,349,VALID,1.09023,
2012-04-25, 01:33:04,VALID,1004.05,VALID,0,VALID,87.0913,VALID,0,VALID,24.9087,VALID,356,VALID,0.957422,
2012-04-25, 01:34:04,VALID,1004.03,VALID,0,VALID,87.3583,VALID,0,VALID,24.8892,VALID,350,VALID,0.728516,
2012-04-25, 01:35:04,VALID,1004.04,VALID,0,VALID,87.4651,VALID,0,VALID,24.8911,VALID,14,VALID,0.791406,
2012-04-25, 01:36:04,VALID,1004.02,VALID,0,VALID,87.4346,VALID,0,VALID,24.8716,VALID,357,VALID,0.680078,
2012-04-25, 01:37:04,VALID,1004.02,VALID,0,VALID,87.6024,VALID,0,VALID,24.8522,VALID,360,VALID,0.849219,
2012-04-25, 01:38:04,VALID,1003.98,VALID,0,VALID,87.8008,VALID,0,VALID,24.8327,VALID,23,VALID,0.645312,
2012-04-25, 01:39:04,VALID,1004.01,VALID,0,VALID,87.8542,VALID,0,VALID,24.8132,VALID,1,VALID,0.769141,
2012-04-25, 01:40:04,VALID,1004.02,VALID,0,VALID,87.9991,VALID,0,VALID,24.7724,VALID,1,VALID,0.292578,
2012-04-25, 01:41:04,VALID,1003.99,VALID,0,VALID,88.0373,VALID,0,VALID,24.7529,VALID,360,VALID,0.432422,
2012-04-25, 01:42:04,VALID,1004.02,VALID,0,VALID,88.2127,VALID,0,VALID,24.7529,VALID,360,VALID,0.0257812,
2012-04-25, 01:43:04,VALID,1004.03,VALID,0,VALID,88.2661,VALID,0,VALID,24.7529,VALID,339,VALID,0.31875,
2012-04-25, 01:44:04,VALID,1004.02,VALID,0,VALID,88.1593,VALID,0,VALID,24.7937,VALID,279,VALID,0.874609,
2012-04-25, 01:45:04,VALID,1004,VALID,0,VALID,87.9457,VALID,0,VALID,24.7724,VALID,284,VALID,0.896875,
2012-04-25, 01:46:04,VALID,1004.03,VALID,0,VALID,87.7245,VALID,0,VALID,24.7937,VALID,291,VALID,1.5793,
2012-04-25, 01:47:04,VALID,1004,VALID,0,VALID,87.7398,VALID,0,VALID,24.8132,VALID,299,VALID,0.851953,
2012-04-25, 01:48:04,VALID,1003.99,VALID,0,VALID,87.7474,VALID,0,VALID,24.8327,VALID,287,VALID,0.5625,
2012-04-25, 01:49:04,VALID,1003.98,VALID,0,VALID,87.5414,VALID,0,VALID,24.8522,VALID,291,VALID,0.674219,
2012-04-25, 01:50:04,VALID,1003.96,VALID,0,VALID,87.6101,VALID,0,VALID,24.8503,VALID,285,VALID,0.530469,
2012-04-25, 01:51:04,VALID,1003.93,VALID,0,VALID,87.6329,VALID,0,VALID,24.8911,VALID,305,VALID,0.267969,
2012-04-25, 01:52:04,VALID,1003.93,VALID,0,VALID,87.6787,VALID,0,VALID,24.8697,VALID,350,VALID,0.529688,
2012-04-25, 01:53:04,VALID,1003.9,VALID,0,VALID,87.5948,VALID,0,VALID,24.8911,VALID,325,VALID,0.653906,
2012-04-25, 01:54:04,VALID,1003.93,VALID,0,VALID,87.6558,VALID,0,VALID,24.8911,VALID,311,VALID,0.502344,
2012-04-25, 01:55:04,VALID,1003.92,VALID,0,VALID,87.7321,VALID,0,VALID,24.8892,VALID,350,VALID,0.801953,
2012-04-25, 01:56:04,VALID,1003.89,VALID,0,VALID,87.8389,VALID,0,VALID,24.8697,VALID,314,VALID,0.248437,
2012-04-25, 01:57:04,VALID,1003.9,VALID,0,VALID,87.7169,VALID,0,VALID,24.8892,VALID,309,VALID,1.24063,
2012-04-25, 01:58:04,VALID,1003.87,VALID,0,VALID,87.7398,VALID,0,VALID,24.8697,VALID,286,VALID,0.721484,
2012-04-25, 01:59:04,VALID,1003.85,VALID,0,VALID,87.5414,VALID,0,VALID,24.9106,VALID,302,VALID,1.25117,
2012-04-25, 02:00:04,VALID,1003.84,VALID,0,VALID,87.5872,VALID,0,VALID,24.9087,VALID,318,VALID,1.08359,
2012-04-25, 02:01:04,VALID,1003.84,VALID,0,VALID,87.8313,VALID,0,VALID,24.93,VALID,299,VALID,0.872266,
2012-04-25, 02:02:04,VALID,1003.84,VALID,0,VALID,87.8923,VALID,0,VALID,24.93,VALID,340,VALID,1.1043,
2012-04-25, 02:03:04,VALID,1003.77,VALID,0,VALID,88.0907,VALID,0,VALID,24.9087,VALID,326,VALID,0.917188,
2012-04-25, 02:04:04,VALID,1003.8,VALID,0,VALID,88.5866,VALID,0,VALID,24.8892,VALID,7,VALID,0.379687,
2012-04-25, 02:05:04,VALID,1003.75,VALID,0,VALID,88.9833,VALID,0,VALID,24.8716,VALID,10,VALID,0.478516,
2012-04-25, 02:06:04,VALID,1003.76,VALID,0,VALID,89.2426,VALID,0,VALID,24.8113,VALID,340,VALID,0.772266,
2012-04-25, 02:07:04,VALID,1003.73,VALID,0,VALID,89.3647,VALID,0,VALID,24.7724,VALID,347,VALID,1.20234,
2012-04-25, 02:08:04,VALID,1003.7,VALID,0,VALID,89.8911,VALID,0,VALID,24.7548,VALID,344,VALID,0.887891,
2012-04-25, 02:09:04,VALID,1003.7,VALID,0,VALID,90.036,VALID,0,VALID,24.6556,VALID,335,VALID,0.327734,
2012-04-25, 02:10:04,VALID,1003.74,VALID,0,VALID,90.3488,VALID,0,VALID,24.6361,VALID,333,VALID,0.415625,
2012-04-25, 02:11:04,VALID,1003.7,VALID,0,VALID,90.593,VALID,0,VALID,24.6166,VALID,310,VALID,0.533984,
2012-04-25, 02:12:04,VALID,1003.74,VALID,0,VALID,90.6311,VALID,0,VALID,24.5777,VALID,306,VALID,1.19922,
2012-04-25, 02:13:04,VALID,1003.74,VALID,0,VALID,90.9134,VALID,0,VALID,24.5601,VALID,311,VALID,0.966406,
2012-04-25, 02:14:04,VALID,1003.71,VALID,0,VALID,90.9363,VALID,0,VALID,24.5406,VALID,278,VALID,0.960547,
2012-04-25, 02:15:04,VALID,1003.74,VALID,0,VALID,90.9286,VALID,0,VALID,24.5212,VALID,289,VALID,1.59609,
2012-04-25, 02:16:04,VALID,1003.74,VALID,0,VALID,91.188,VALID,0,VALID,24.5212,VALID,276,VALID,0.680469,
2012-04-25, 02:17:04,VALID,1003.73,VALID,0,VALID,91.0812,VALID,0,VALID,24.4998,VALID,288,VALID,1.85391,
2012-04-25, 02:18:04,VALID,1003.73,VALID,0,VALID,91.3101,VALID,0,VALID,24.523,VALID,262,VALID,0.608984,
2012-04-25, 02:19:04,VALID,1003.7,VALID,0,VALID,91.2567,VALID,0,VALID,24.4804,VALID,298,VALID,0.957812,
2012-04-25, 02:20:04,VALID,1003.69,VALID,0,VALID,91.2796,VALID,0,VALID,24.4628,VALID,314,VALID,0.785937,
2012-04-25, 02:21:04,VALID,1003.67,VALID,0,VALID,91.4245,VALID,0,VALID,24.4822,VALID,313,VALID,0.267188,
2012-04-25, 02:22:04,VALID,1003.67,VALID,0,VALID,91.5542,VALID,0,VALID,24.4414,VALID,324,VALID,0.773828,
2012-04-25, 02:23:04,VALID,1003.68,VALID,0,VALID,91.6229,VALID,0,VALID,24.4628,VALID,291,VALID,0.552344,
2012-04-25, 02:24:04,VALID,1003.71,VALID,0,VALID,91.6,VALID,0,VALID,24.4628,VALID,280,VALID,0.483594,
2012-04-25, 02:25:04,VALID,1003.7,VALID,0,VALID,91.6686,VALID,0,VALID,24.422,VALID,340,VALID,0.525391,
2012-04-25, 02:26:04,VALID,1003.69,VALID,0,VALID,91.7831,VALID,0,VALID,24.4433,VALID,349,VALID,0.292969,
2012-04-25, 02:27:04,VALID,1003.7,VALID,0,VALID,91.8441,VALID,0,VALID,24.422,VALID,357,VALID,0.579297,
2012-04-25, 02:28:04,VALID,1003.65,VALID,0,VALID,91.8441,VALID,0,VALID,24.4025,VALID,357,VALID,0.166016,
2012-04-25, 02:29:04,VALID,1003.64,VALID,0,VALID,91.8899,VALID,0,VALID,24.383,VALID,356,VALID,0.245703,
2012-04-25, 02:30:04,VALID,1003.66,VALID,0,VALID,91.9814,VALID,0,VALID,24.4043,VALID,356,VALID,0.00117188,
2012-04-25, 02:31:04,VALID,1003.66,VALID,0,VALID,92.134,VALID,0,VALID,24.3849,VALID,356,VALID,0.279687,
2012-04-25, 02:32:04,VALID,1003.68,VALID,0,VALID,92.195,VALID,0,VALID,24.3849,VALID,356,VALID,0.0222656,
2012-04-25, 02:33:04,VALID,1003.66,VALID,0,VALID,92.2027,VALID,0,VALID,24.3636,VALID,355,VALID,0.2375,
2012-04-25, 02:34:04,VALID,1003.66,VALID,0,VALID,92.3552,VALID,0,VALID,24.3441,VALID,355,VALID,0,
2012-04-25, 02:35:04,VALID,1003.65,VALID,0,VALID,92.3629,VALID,0,VALID,24.3441,VALID,355,VALID,0.00117188,
2012-04-25, 02:36:04,VALID,1003.65,VALID,0,VALID,92.34,VALID,0,VALID,24.3441,VALID,355,VALID,0,
2012-04-25, 02:37:04,VALID,1003.68,VALID,0,VALID,92.3781,VALID,0,VALID,24.3246,VALID,355,VALID,0,
2012-04-25, 02:38:04,VALID,1003.71,VALID,0,VALID,92.3629,VALID,0,VALID,24.3459,VALID,355,VALID,0.113281,
2012-04-25, 02:39:04,VALID,1003.71,VALID,0,VALID,92.4697,VALID,0,VALID,24.3459,VALID,355,VALID,0.287109,
2012-04-25, 02:40:04,VALID,1003.76,VALID,0,VALID,92.5231,VALID,0,VALID,24.3441,VALID,355,VALID,0.242969,
2012-04-25, 02:41:04,VALID,1003.79,VALID,0,VALID,92.5917,VALID,0,VALID,24.3459,VALID,355,VALID,0,
2012-04-25, 02:42:04,VALID,1003.8,VALID,0,VALID,92.5841,VALID,0,VALID,24.3459,VALID,355,VALID,0,
2012-04-25, 02:43:04,VALID,1003.82,VALID,0,VALID,92.7443,VALID,0,VALID,24.3459,VALID,355,VALID,0,
2012-04-25, 02:44:04,VALID,1003.83,VALID,0,VALID,92.607,VALID,0,VALID,24.3459,VALID,355,VALID,0,
2012-04-25, 02:45:04,VALID,1003.88,VALID,0,VALID,92.729,VALID,0,VALID,24.3052,VALID,355,VALID,0,
2012-04-25, 02:46:04,VALID,1003.88,VALID,0,VALID,92.6222,VALID,0,VALID,24.307,VALID,172,VALID,1.02266,
2012-04-25, 02:47:04,VALID,1003.9,VALID,0,VALID,92.6528,VALID,0,VALID,24.2681,VALID,172,VALID,0.646094,
2012-04-25, 02:48:04,VALID,1003.91,VALID,0,VALID,92.9198,VALID,0,VALID,24.2681,VALID,156,VALID,0.988281,
2012-04-25, 02:49:04,VALID,1003.94,VALID,0,VALID,92.7977,VALID,0,VALID,24.2486,VALID,156,VALID,0.901172,
2012-04-25, 02:50:04,VALID,1003.96,VALID,0,VALID,93.0113,VALID,0,VALID,24.2468,VALID,156,VALID,0.714453,
2012-04-25, 02:51:04,VALID,1003.96,VALID,0,VALID,93.0342,VALID,0,VALID,24.2468,VALID,156,VALID,0.853125,
2012-04-25, 02:52:04,VALID,1003.95,VALID,0,VALID,92.9808,VALID,0,VALID,24.2486,VALID,156,VALID,0.676172,
2012-04-25, 02:53:04,VALID,1003.96,VALID,0,VALID,93.08,VALID,0,VALID,24.2273,VALID,156,VALID,0.507813,
2012-04-25, 02:54:04,VALID,1003.95,VALID,0,VALID,93.0876,VALID,0.0815089,VALID,24.2291,VALID,138,VALID,0.969922,
2012-04-25, 02:55:04,VALID,1003.94,VALID,0,VALID,93.1486,VALID,0,VALID,24.2291,VALID,138,VALID,0.703516,
2012-04-25, 02:56:04,VALID,1003.94,VALID,0,VALID,93.1868,VALID,0,VALID,24.2504,VALID,139,VALID,0.728906,
2012-04-25, 02:57:04,VALID,1003.93,VALID,0,VALID,93.2631,VALID,0,VALID,24.2273,VALID,129,VALID,0.649609,
2012-04-25, 02:58:04,VALID,1003.94,VALID,0,VALID,93.2859,VALID,0,VALID,24.2291,VALID,123,VALID,0.683984,
2012-04-25, 02:59:04,VALID,1003.94,VALID,0,VALID,93.2631,VALID,0,VALID,24.2291,VALID,119,VALID,0.408594,
2012-04-25, 03:00:04,VALID,1003.94,VALID,0,VALID,93.3165,VALID,0,VALID,24.2273,VALID,119,VALID,0.471875,
2012-04-25, 03:01:04,VALID,1003.94,VALID,0,VALID,93.2936,VALID,0,VALID,24.2291,VALID,102,VALID,0.416797,
2012-04-25, 03:02:04,VALID,1003.96,VALID,0,VALID,93.3317,VALID,0,VALID,24.2078,VALID,102,VALID,0.263672,
2012-04-25, 03:03:04,VALID,1003.97,VALID,0,VALID,93.3775,VALID,0,VALID,24.2291,VALID,102,VALID,0.000390625,
2012-04-25, 03:04:04,VALID,1003.97,VALID,0,VALID,93.4004,VALID,0,VALID,24.2078,VALID,102,VALID,0.381641,
2012-04-25, 03:05:04,VALID,1003.95,VALID,0,VALID,93.3851,VALID,0,VALID,24.2078,VALID,102,VALID,0.648438,
2012-04-25, 03:06:04,VALID,1003.91,VALID,0,VALID,93.2859,VALID,0,VALID,24.1902,VALID,102,VALID,1.14961,
2012-04-25, 03:07:04,VALID,1003.93,VALID,0,VALID,93.469,VALID,0,VALID,24.2097,VALID,102,VALID,0.816016,
2012-04-25, 03:08:04,VALID,1003.93,VALID,0,VALID,93.469,VALID,0,VALID,24.1689,VALID,96,VALID,0.655078,
2012-04-25, 03:09:04,VALID,1003.92,VALID,0,VALID,93.4538,VALID,0,VALID,24.1689,VALID,88,VALID,0.550391,
2012-04-25, 03:10:04,VALID,1003.96,VALID,0,VALID,93.4156,VALID,0,VALID,24.1707,VALID,112,VALID,0.782422,
2012-04-25, 03:11:04,VALID,1003.97,VALID,0,VALID,93.3775,VALID,0,VALID,24.13,VALID,154,VALID,0.933594,
2012-04-25, 03:12:04,VALID,1004.02,VALID,0,VALID,93.2707,VALID,0.0815089,VALID,24.1689,VALID,182,VALID,0.862891,
2012-04-25, 03:13:04,VALID,1004.08,VALID,0,VALID,93.408,VALID,0,VALID,24.2078,VALID,218,VALID,0.701172,
2012-04-25, 03:14:04,VALID,1004.1,VALID,0,VALID,93.3546,VALID,0,VALID,24.2662,VALID,198,VALID,0.535156,
2012-04-25, 03:15:04,VALID,1004.16,VALID,0,VALID,93.3622,VALID,0.0815089,VALID,24.2468,VALID,186,VALID,0.761719,
2012-04-25, 03:16:04,VALID,1004.18,VALID,0,VALID,93.2631,VALID,0,VALID,24.2662,VALID,161,VALID,1.31211,
2012-04-25, 03:17:04,VALID,1004.24,VALID,0,VALID,93.4385,VALID,0,VALID,24.2644,VALID,171,VALID,0.834766,
2012-04-25, 03:18:04,VALID,1004.3,VALID,0,VALID,93.3317,VALID,0,VALID,24.2662,VALID,173,VALID,1.13984,
2012-04-25, 03:19:04,VALID,1004.38,VALID,0,VALID,93.3775,VALID,0,VALID,24.2662,VALID,191,VALID,0.810938,
2012-04-25, 03:20:04,VALID,1004.46,VALID,0,VALID,93.3928,VALID,0,VALID,24.3052,VALID,193,VALID,1.50508,
2012-04-25, 03:21:04,VALID,1004.6,VALID,0,VALID,93.3546,VALID,0,VALID,24.2644,VALID,212,VALID,0.966797,
2012-04-25, 03:22:04,VALID,1004.69,VALID,0,VALID,93.2859,VALID,0,VALID,24.2857,VALID,216,VALID,1.27578,
2012-04-25, 03:23:04,VALID,1004.78,VALID,0,VALID,93.3775,VALID,0,VALID,24.2662,VALID,234,VALID,1.2,
2012-04-25, 03:24:04,VALID,1004.76,VALID,0,VALID,91.9662,VALID,0,VALID,24.1513,VALID,257,VALID,1.86875,
2012-04-25, 03:25:04,VALID,1004.81,VALID,0.5,VALID,91.6,VALID,0,VALID,24.0132,VALID,230,VALID,1.64063,
2012-04-25, 03:26:04,VALID,1004.86,VALID,0.5,VALID,92.1569,VALID,0,VALID,23.9159,VALID,261,VALID,1.15273,
2012-04-25, 03:27:04,VALID,1004.9,VALID,0.5,VALID,92.195,VALID,0.0815089,VALID,23.7796,VALID,251,VALID,1.96836,
2012-04-25, 03:28:04,VALID,1004.93,VALID,0.5,VALID,92.4086,VALID,0,VALID,23.6044,VALID,56,VALID,0.688281,
2012-04-25, 03:29:04,VALID,1004.91,VALID,0.5,VALID,92.9121,VALID,0,VALID,23.4682,VALID,305,VALID,1.58906,
2012-04-25, 03:30:04,VALID,1004.98,VALID,0,VALID,93.0113,VALID,0,VALID,23.3514,VALID,71,VALID,1.16797,
2012-04-25, 03:31:04,VALID,1005.05,VALID,0.5,VALID,93.1944,VALID,0,VALID,23.2347,VALID,214,VALID,1.84414,
2012-04-25, 03:32:04,VALID,1005.09,VALID,1,VALID,93.4004,VALID,0,VALID,23.1179,VALID,219,VALID,1.36094,
2012-04-25, 03:33:04,VALID,1005.05,VALID,1,VALID,93.3317,VALID,0,VALID,22.9605,VALID,243,VALID,1.70313,
2012-04-25, 03:34:04,VALID,1005.06,VALID,0.5,VALID,93.7895,VALID,0,VALID,22.9233,VALID,223,VALID,1.4082,
2012-04-25, 03:35:04,VALID,1005.07,VALID,0.5,VALID,93.8352,VALID,0.0815089,VALID,22.826,VALID,235,VALID,1.79688,
2012-04-25, 03:36:04,VALID,1005.04,VALID,0.5,VALID,94.0336,VALID,0,VALID,22.7465,VALID,198,VALID,1.90469,
2012-04-25, 03:37:04,VALID,1005.1,VALID,0,VALID,94.3158,VALID,0.0815089,VALID,22.7482,VALID,219,VALID,2.50742,
2012-04-25, 03:38:04,VALID,1005.19,VALID,1,VALID,94.3235,VALID,0,VALID,22.711,VALID,243,VALID,2.53047,
2012-04-25, 03:39:04,VALID,1005.15,VALID,1,VALID,94.354,VALID,0.0815089,VALID,22.6315,VALID,254,VALID,2.06875,
2012-04-25, 03:40:04,VALID,1005.16,VALID,0.5,VALID,94.4303,VALID,0.0815089,VALID,22.5731,VALID,218,VALID,2.86875,
2012-04-25, 03:41:04,VALID,1005.09,VALID,1,VALID,94.5142,VALID,0,VALID,22.5147,VALID,262,VALID,2.67695,
2012-04-25, 03:42:04,VALID,1005.18,VALID,1,VALID,94.621,VALID,0.0815089,VALID,22.5147,VALID,229,VALID,3.75039,
2012-04-25, 03:43:04,VALID,1005.14,VALID,1,VALID,94.8117,VALID,0,VALID,22.5342,VALID,218,VALID,1.425,
2012-04-25, 03:44:04,VALID,1005.18,VALID,1,VALID,95.0177,VALID,0,VALID,22.5731,VALID,253,VALID,1.63594,
2012-04-25, 03:45:04,VALID,1005.14,VALID,0.5,VALID,95.0482,VALID,0,VALID,22.612,VALID,309,VALID,1.42813,